Location: Airlie Beach - Cannonvale QLD, Australia
(20.2768°S, 148.7558°E)
Time: 05:58:22
(UTC+10:00)

N. Korean satellite - Visible Passes

Search period start: 26 March 2023 00:00
Search period end: 05 April 2023 00:00
Orbit: 392 x 418 km, 97.3° (Epoch: 25 March)

Date Brightness Start Highest point End Pass type
(mag) Time Alt. Az. Time Alt. Az. Time Alt. Az.
26 Mar 8.1 04:36:13 10° NE 04:38:57 30° ESE 04:41:42 10° SSE visible
27 Mar 6.7 05:19:04 10° NNW 05:21:55 35° W 05:24:47 10° SSW visible
28 Mar 8.6 04:30:37 10° NE 04:33:08 24° ESE 04:35:41 10° SSE visible
29 Mar 6.3 05:12:49 10° N 05:15:46 47° W 05:18:46 10° SSW visible
30 Mar 9.1 04:24:32 10° ENE 04:26:45 18° ESE 04:28:59 10° SSE visible
31 Mar 6.0 05:06:01 10° N 05:09:03 67° WNW 05:12:09 10° SSW visible
01 Apr 9.4 04:18:05 10° ENE 04:19:48 14° ESE 04:21:31 10° SE visible
02 Apr 6.1 04:58:43 10° NNE 05:01:46 84° E 05:04:52 10° S visible
03 Apr 9.8 04:11:36 10° E 04:12:16 11° ESE 04:12:56 10° ESE visible
03 Apr 7.8 05:41:51 10° NW 05:43:47 16° W 05:45:44 10° WSW visible
04 Apr 6.8 04:50:54 10° NNE 04:53:55 56° ESE 04:56:58 10° S visible
